Weather History for Red Oak, IA

Change the Weather History Date:

Monday, February 17, 2014

  Actual Average Record
Temperature  
Mean Temperature 40 °F -  
Max Temperature 51 °F 39 °F 68 °F (2011)
Min Temperature 30 °F 16 °F -21 °F (1958)
Degree Days  
Heating Degree Days 24    
Moisture  
Dew Point 27 °F    
Average Humidity 68    
Maximum Humidity 93    
Minimum Humidity 35    
Precipitation  
Precipitation 0.12 in - - ()
Sea Level Pressure  
Sea Level Pressure 29.89 in    
Wind  
Wind Speed 8 mph (West)    
Max Wind Speed 21 mph    
Max Gust Speed 30 mph    
Visibility 9 miles    
Events      
Averages and records for this station are not official NWS values.
T = Trace of Precipitation, MM = Missing Value Source: NWS Daily Summary

Daily Weather History Graph

Daily Weather History Graph

Search for Another Location

Airport:

Trip Planner

Search our weather history database for the weather conditions in past years. The results will help you decide how hot, cold, wet, or windy it might be!

Date:

Astronomy

Feb. 17, 2014 Rise Set
Actual Time 7:12 AM CST 5:57 PM CST
Civil Twilight 6:44 AM CST 6:26 PM CST
Nautical Twilight 6:12 AM CST 6:58 PM CST
Astronomical Twilight 5:40 AM CST 7:30 PM CST
Moon 8:55 PM CST (2/17) 8:12 AM CST (2/17)
Length of Visible Light 11h 41m
Length of Day
10h 45m
Waning Gibbous, 93% of the Moon is Illuminated
Feb 17
Waning Gibbous
Feb 22
Last Quarter
Mar 1
New
Mar 8
First Quarter
Mar 16
Full

Hourly Weather History & Observations

Time (CST) Temp. Windchill Dew Point Humidity Pressure Visibility Wind Dir Wind Speed Gust Speed Precip Events Conditions
6:15 AM 30.2 °F - 28.4 °F 93% 29.81 in 1.8 mi Calm Calm - N/A   Overcast
6:35 AM 30.2 °F 24.3 °F 28.4 °F 93% 29.82 in 0.8 mi West 5.8 mph - N/A   Overcast
6:55 AM 30.2 °F 24.3 °F 28.4 °F 93% 29.83 in 3.0 mi NW 5.8 mph - 0.02 in   Overcast
7:15 AM 30.2 °F 24.3 °F 28.4 °F 93% 29.85 in 4.0 mi WSW 5.8 mph - N/A   Overcast
7:35 AM 30.2 °F 21.9 °F 28.4 °F 93% 29.86 in 5.0 mi West 9.2 mph - N/A   Overcast
7:55 AM 30.2 °F 22.6 °F 28.4 °F 93% 29.86 in 5.0 mi West 8.1 mph - 0.05 in   Mostly Cloudy
8:15 AM 30.2 °F 22.6 °F 28.4 °F 93% 29.86 in 5.0 mi West 8.1 mph - N/A   Clear
8:35 AM 30.2 °F 22.6 °F 28.4 °F 93% 29.87 in 5.0 mi West 8.1 mph - N/A   Clear
8:55 AM 32.0 °F 24.2 °F 30.2 °F 93% 29.87 in 6.0 mi West 9.2 mph - 0.02 in   Clear
9:15 AM 33.8 °F 26.4 °F 30.2 °F 87% 29.88 in 7.0 mi West 9.2 mph - N/A   Clear
9:35 AM 33.8 °F 24.3 °F 30.2 °F 87% 29.89 in 8.0 mi West 13.8 mph - N/A   Clear
9:55 AM 35.6 °F 28.6 °F 32.0 °F 87% 29.89 in 9.0 mi West 9.2 mph - 0.03 in   Clear
10:35 AM 39.2 °F 31.2 °F 33.8 °F 81% 29.90 in 10.0 mi West 13.8 mph - N/A   Clear
10:55 AM 39.2 °F 30.8 °F 33.8 °F 81% 29.91 in 10.0 mi West 15.0 mph 21.9 mph N/A   Clear
11:15 AM 41.0 °F 33.5 °F 33.8 °F 76% 29.91 in 10.0 mi West 13.8 mph - N/A   Clear
11:35 AM 42.8 °F 34.8 °F 33.8 °F 70% 29.91 in 10.0 mi WNW 17.3 mph 23.0 mph N/A   Clear
11:55 AM 44.6 °F 36.6 °F 33.8 °F 66% 29.91 in 10.0 mi WNW 19.6 mph - N/A   Clear
12:15 PM 44.6 °F 36.9 °F 33.8 °F 66% 29.89 in 10.0 mi WNW 18.4 mph - N/A   Clear
12:35 PM 46.4 °F 39.5 °F 32.0 °F 57% 29.89 in 10.0 mi WNW 17.3 mph 23.0 mph N/A   Clear
12:55 PM 46.4 °F 39.5 °F 32.0 °F 57% 29.89 in 10.0 mi WNW 17.3 mph 25.3 mph N/A   Clear
1:15 PM 48.2 °F - 32.0 °F 54% 29.88 in 10.0 mi WNW 18.4 mph 24.2 mph N/A   Clear
1:35 PM 50.0 °F - 30.2 °F 47% 29.87 in 10.0 mi WNW 15.0 mph - N/A   Clear
1:55 PM 50.0 °F - 28.4 °F 43% 29.87 in 10.0 mi West 20.7 mph 26.5 mph N/A   Clear
2:15 PM 50.0 °F - 26.6 °F 40% 29.87 in 10.0 mi WNW 20.7 mph 28.8 mph N/A   Clear
2:35 PM 50.0 °F - 26.6 °F 40% 29.87 in 10.0 mi WNW 19.6 mph 29.9 mph N/A   Clear
2:55 PM 51.8 °F - 28.4 °F 41% 29.88 in 10.0 mi WNW 15.0 mph 21.9 mph N/A   Clear
3:15 PM 51.8 °F - 26.6 °F 38% 29.88 in 10.0 mi NW 17.3 mph 25.3 mph N/A   Clear
3:35 PM 51.8 °F - 24.8 °F 35% 29.89 in 10.0 mi NW 16.1 mph 28.8 mph N/A   Clear
3:55 PM 51.8 °F - 24.8 °F 35% 29.90 in 10.0 mi NW 17.3 mph - N/A   Clear
4:15 PM 51.8 °F - 24.8 °F 35% 29.91 in 10.0 mi NW 12.7 mph 21.9 mph N/A   Clear
5:35 PM 46.4 °F 42.9 °F 24.8 °F 43% 29.92 in 10.0 mi WNW 6.9 mph - N/A   Clear
5:55 PM 44.6 °F 43.1 °F 24.8 °F 46% 29.92 in 10.0 mi West 3.5 mph - N/A   Clear
6:15 PM 39.2 °F - 24.8 °F 56% 29.93 in 10.0 mi Calm Calm - N/A   Clear
6:35 PM 35.6 °F - 24.8 °F 65% 29.93 in 10.0 mi Calm Calm - N/A   Clear
6:55 PM 37.4 °F - 24.8 °F 60% 29.93 in 10.0 mi Calm Calm - N/A   Clear
7:15 PM 33.8 °F - 24.8 °F 70% 29.93 in 10.0 mi Calm Calm - N/A   Clear
7:35 PM 33.8 °F - 24.8 °F 70% 29.93 in 10.0 mi Calm Calm - N/A   Clear
7:55 PM 33.8 °F - 24.8 °F 70% 29.93 in 10.0 mi Calm Calm - N/A   Clear
8:15 PM 32.0 °F - 24.8 °F 75% 29.92 in 10.0 mi Calm Calm - N/A   Clear
8:35 PM 32.0 °F - 24.8 °F 75% 29.92 in 10.0 mi Calm Calm - N/A   Clear
8:55 PM 30.2 °F - 23.0 °F 75% 29.92 in 10.0 mi Calm Calm - N/A   Clear
9:15 PM 32.0 °F - 23.0 °F 69% 29.91 in 10.0 mi Calm Calm - N/A   Clear
9:35 PM 33.8 °F 30.8 °F 23.0 °F 65% 29.91 in 10.0 mi SSW 3.5 mph - N/A   Clear
9:55 PM 30.2 °F 24.3 °F 24.8 °F 80% 29.90 in 10.0 mi SSW 5.8 mph - N/A   Clear
10:15 PM 32.0 °F 27.5 °F 24.8 °F 75% 29.90 in 10.0 mi South 4.6 mph - N/A   Clear
10:35 PM 30.2 °F 26.7 °F 24.8 °F 80% 29.89 in 10.0 mi SSW 3.5 mph - N/A   Clear
10:55 PM 32.0 °F 27.5 °F 23.0 °F 69% 29.89 in 10.0 mi SSW 4.6 mph - N/A   Clear
11:15 PM 30.2 °F 25.4 °F 23.0 °F 75% 29.88 in 10.0 mi South 4.6 mph - N/A   Clear
11:35 PM 32.0 °F - 24.8 °F 75% 29.89 in 10.0 mi Calm Calm - N/A   Clear
11:55 PM 33.8 °F 29.6 °F 23.0 °F 65% 29.87 in 10.0 mi South 4.6 mph - N/A   Clear